KI4BSX Weather Reports


Display with metric or nautical units.
time (UTC)temp
F
wind
direction
speed
MPH
gust
MPH
rain 1hr
in
rain 24hr
in
rain mn
in
humidity
%
barometer
mb
20260504050346 46 132 0.0 0.0 0.00 0.00 0.00 86 1020.2
20260504045844 46 132 0.0 0.0 0.00 0.00 0.00 86 1020.1
20260504045338 46 132 0.0 0.0 0.00 0.00 0.00 86 1020.2
20260504044836 46 132 0.0 0.0 0.00 0.00 0.00 85 1020.2
20260504044333 46 132 0.0 0.0 0.00 0.00 0.00 85 1020.2
20260504043830 46 132 0.0 0.0 0.00 0.00 0.00 85 1020.3
20260504043327 46 132 0.0 0.0 0.00 0.00 0.00 85 1020.2
20260504042824 47 132 0.0 0.0 0.00 0.00 0.00 84 1020.2
20260504042320 47 132 0.0 0.0 0.00 0.00 0.00 84 1020.1
20260504041817 47 131 0.0 0.0 0.00 0.00 0.00 84 1020.3
20260504041313 47 131 0.0 0.0 0.00 0.00 0.00 84 1020.3
20260504040809 47 131 0.0 0.0 0.00 0.00 0.00 83 1020.3
20260504040307 47 131 0.0 0.0 0.00 0.00 0.00 83 1020.3
20260504035803 47 131 0.0 0.0 0.00 0.00 0.00 83 1020.4
20260504035300 48 131 0.0 0.0 0.00 0.00 0.00 83 1020.3
20260504034757 48 131 0.0 0.0 0.00 0.00 0.00 82 1020.2
20260504034255 48 131 0.0 0.0 0.00 0.00 0.00 82 1020.1
20260504033752 48 131 0.0 0.0 0.00 0.00 0.00 82 1020.3
20260504033250 48 131 0.0 0.0 0.00 0.00 0.00 81 1020.4
20260504032746 49 131 0.0 0.0 0.00 0.00 0.00 81 1020.4
20260504032243 49 132 0.0 0.0 0.00 0.00 0.00 81 1020.4
20260504031740 49 132 0.0 0.0 0.00 0.00 0.00 80 1020.2
20260504031238 49 132 0.0 1.0 0.00 0.00 0.00 80 1020.3
20260504030733 49 131 0.0 0.0 0.00 0.00 0.00 79 1020.2
20260504030231 49 131 0.0 1.0 0.00 0.00 0.00 79 1020.3
20260504025727 49 133 0.0 1.0 0.00 0.00 0.00 78 1020.2
20260504025224 49 133 0.0 0.0 0.00 0.00 0.00 78 1020.2
20260504024721 50 133 0.0 0.0 0.00 0.00 0.00 78 1020.1
20260504024217 50 133 0.0 0.0 0.00 0.00 0.00 77 1020.3
20260504023714 50 133 0.0 0.0 0.00 0.00 0.00 77 1020.2
20260504023210 50 133 0.0 0.0 0.00 0.00 0.00 77 1020.1
20260504022707 50 133 0.0 0.0 0.00 0.00 0.00 76 1019.9
20260504022203 50 133 0.0 0.0 0.00 0.00 0.00 76 1019.9
20260504021701 51 133 0.0 0.0 0.00 0.00 0.00 75 1020.1
20260504021157 51 133 0.0 0.0 0.00 0.00 0.00 75 1019.9
20260504020654 51 133 0.0 0.0 0.00 0.00 0.00 74 1019.8
20260504020150 51 133 0.0 0.0 0.00 0.00 0.00 73 1019.8
20260504015647 52 133 0.0 0.0 0.00 0.00 0.00 73 1019.5
20260504015143 52 133 0.0 0.0 0.00 0.00 0.00 72 1019.5
20260504014639 53 133 0.0 0.0 0.00 0.00 0.00 71 1019.3
20260504014136 53 133 0.0 0.0 0.00 0.00 0.00 70 1019.4
20260504013634 53 133 0.0 0.0 0.00 0.00 0.00 69 1019.3
20260504013131 54 133 0.0 0.0 0.00 0.00 0.00 68 1019.0
20260504012628 54 133 0.0 0.0 0.00 0.00 0.00 67 1019.2
20260504012126 55 133 0.0 1.0 0.00 0.00 0.00 67 1019.1
20260504011622 55 137 1.0 1.0 0.00 0.00 0.00 66 1019.2
20260504011119 56 137 0.0 0.0 0.00 0.00 0.00 66 1019.1
20260504010615 56 137 0.0 0.0 0.00 0.00 0.00 65 1018.9
20260504010111 56 137 0.0 0.0 0.00 0.00 0.00 63 1019.0
20260504005608 57 137 0.0 0.0 0.00 0.00 0.00 62 1018.8
20260504005105 57 137 0.0 1.0 0.00 0.00 0.00 61 1018.7
20260504004603 58 137 1.0 1.0 0.00 0.00 0.00 60 1018.9
20260504004100 58 137 0.0 1.0 0.00 0.00 0.00 58 1018.8
20260504003556 58 138 0.0 0.0 0.00 0.00 0.00 58 1018.8
20260504003053 59 137 0.0 1.0 0.00 0.00 0.00 57 1019.0
20260504002549 60 137 0.0 1.0 0.00 0.00 0.00 56 1018.6
20260504002047 60 137 0.0 1.0 0.00 0.00 0.00 55 1018.5
20260504001545 60 137 0.0 1.0 0.00 0.00 0.00 53 1018.6
20260504001040 61 137 0.0 1.0 0.00 0.00 0.00 52 1018.4
20260504000538 62 137 1.0 1.0 0.00 0.00 0.00 51 1018.6
20260504000035 62 91 1.0 1.0 0.00 0.00 0.00 49 1018.6
20260503235533 63 136 1.0 1.0 0.00 0.00 0.00 48 1018.4
20260503235030 64 142 0.0 1.0 0.00 0.00 0.00 47 1018.5
20260503234527 64 141 1.0 1.0 0.00 0.00 0.00 46 1018.4
20260503234026 65 138 0.0 1.0 0.00 0.00 0.00 45 1018.3
20260503233521 66 137 0.0 1.0 0.00 0.00 0.00 43 1018.3
20260503233018 67 134 1.0 2.0 0.00 0.00 0.00 42 1018.2
20260503232515 69 107 0.0 2.0 0.00 0.00 0.00 40 1018.3
20260503232012 71 97 0.0 1.0 0.00 0.00 0.00 38 1018.4
20260503231510 71 109 1.0 4.0 0.00 0.00 0.00 37 1018.4
20260503231006 71 347 1.0 2.0 0.00 0.00 0.00 37 1018.5
20260503230503 71 347 4.0 6.0 0.00 0.00 0.00 37 1018.5
20260503230001 71 238 0.0 0.0 0.00 0.00 0.00 38 1018.3
20260503225457 71 163 1.0 3.0 0.00 0.00 0.00 36 1018.6
20260503224952 71 325 2.0 10.0 0.00 0.00 0.00 36 1018.5
20260503224450 72 69 0.0 1.0 0.00 0.00 0.00 39 1018.7
20260503223948 72 20 1.0 2.0 0.00 0.00 0.00 38 1018.6
20260503223445 71 151 1.0 2.0 0.00 0.00 0.00 36 1018.6
20260503222941 73 299 1.0 3.0 0.00 0.00 0.00 36 1018.6
20260503222440 72 20 1.0 3.0 0.00 0.00 0.00 35 1018.6
20260503221937 73 331 2.0 3.0 0.00 0.00 0.00 36 1018.5
20260503221435 72 2 1.0 3.0 0.00 0.00 0.00 35 1018.4
20260503220932 72 333 4.0 7.0 0.00 0.00 0.00 34 1018.5
20260503220428 72 309 1.0 3.0 0.00 0.00 0.00 34 1018.7
20260503215925 72 260 4.0 8.0 0.00 0.00 0.00 33 1018.7
20260503215422 73 303 2.0 3.0 0.00 0.00 0.00 33 1018.7
20260503214920 73 257 1.0 4.0 0.00 0.00 0.00 33 1018.8
20260503214417 73 235 4.0 4.0 0.00 0.00 0.00 32 1018.9
20260503213915 72 16 1.0 2.0 0.00 0.00 0.00 32 1018.9
20260503213412 72 139 0.0 2.0 0.00 0.00 0.00 32 1018.8
20260503212909 71 303 4.0 7.0 0.00 0.00 0.00 32 1018.9
20260503212406 73 265 4.0 7.0 0.00 0.00 0.00 32 1018.9
20260503211904 72 256 0.0 4.0 0.00 0.00 0.00 33 1018.9
20260503211400 71 248 2.0 6.0 0.00 0.00 0.00 33 1019.0
20260503210855 72 332 5.0 10.0 0.00 0.00 0.00 34 1019.0
20260503210353 73 113 0.0 1.0 0.00 0.00 0.00 35 1019.0
20260503205847 72 20 1.0 3.0 0.00 0.00 0.00 35 1019.0
20260503205345 72 289 1.0 6.0 0.00 0.00 0.00 37 1019.1
20260503204841 71 331 3.0 4.0 0.00 0.00 0.00 36 1019.0
20260503204338 72 330 4.0 7.0 0.00 0.00 0.00 36 1019.4
20260503203835 71 344 4.0 8.0 0.00 0.00 0.00 35 1019.2
20260503203333 72 339 3.0 7.0 0.00 0.00 0.00 36 1019.4
20260503202830 73 308 3.0 3.0 0.00 0.00 0.00 37 1019.3
20260503202328 70 31 2.0 6.0 0.00 0.00 0.00 37 1019.5
20260503201826 72 31 2.0 3.0 0.00 0.00 0.00 37 1019.7
20260503201322 71 307 4.0 6.0 0.00 0.00 0.00 37 1019.7
20260503200820 70 233 1.0 8.0 0.00 0.00 0.00 37 1019.9
20260503200316 71 270 2.0 4.0 0.00 0.00 0.00 37 1019.9
20260503195813 71 320 6.0 9.0 0.00 0.00 0.00 37 1020.0
20260503195310 71 337 1.0 6.0 0.00 0.00 0.00 37 1020.0
20260503194807 73 252 5.0 6.0 0.00 0.00 0.00 37 1020.1
20260503194303 71 37 2.0 4.0 0.00 0.00 0.00 38 1020.3
20260503193759 71 215 1.0 4.0 0.00 0.00 0.00 37 1020.5
20260503193255 70 12 3.0 4.0 0.00 0.00 0.00 37 1020.4
20260503192751 69 292 1.0 2.0 0.00 0.00 0.00 37 1021.0
20260503192246 70 312 10.0 15.0 0.00 0.00 0.00 37 1020.9
20260503191743 70 315 4.0 7.0 0.00 0.00 0.00 37 1021.1
20260503191240 69 316 3.0 7.0 0.00 0.00 0.00 37 1021.1
20260503190737 69 328 3.0 3.0 0.00 0.00 0.00 37 1021.1
20260503190234 69 304 2.0 4.0 0.00 0.00 0.00 38 1021.3
20260503185731 69 299 4.0 9.0 0.00 0.00 0.00 38 1021.3
20260503185227 69 328 1.0 6.0 0.00 0.00 0.00 38 1021.2
20260503184721 69 328 4.0 6.0 0.00 0.00 0.00 38 1021.5
20260503184218 71 301 7.0 9.0 0.00 0.00 0.00 39 1021.4
20260503183714 69 161 0.0 3.0 0.00 0.00 0.00 39 1021.5
20260503183212 69 323 2.0 4.0 0.00 0.00 0.00 39 1021.5
20260503182710 68 327 2.0 6.0 0.00 0.00 0.00 39 1021.5
20260503182208 69 291 4.0 7.0 0.00 0.00 0.00 40 1021.6
20260503181704 67 2 3.0 8.0 0.00 0.00 0.00 40 1021.5
20260503181201 68 305 3.0 8.0 0.00 0.00 0.00 40 1021.5
20260503180658 69 317 5.0 9.0 0.00 0.00 0.00 40 1021.7
20260503180157 68 337 2.0 3.0 0.00 0.00 0.00 41 1021.7
20260503175653 67 200 1.0 3.0 0.00 0.00 0.00 42 1021.8
20260503175150 68 211 1.0 3.0 0.00 0.00 0.00 42 1021.6
20260503174646 69 313 4.0 6.0 0.00 0.00 0.00 42 1021.6
20260503174144 68 248 1.0 2.0 0.00 0.00 0.00 42 1021.7
20260503173639 68 331 2.0 3.0 0.00 0.00 0.00 43 1021.8
20260503173136 67 14 4.0 7.0 0.00 0.00 0.00 43 1021.9
20260503172633 67 292 1.0 2.0 0.00 0.00 0.00 44 1022.1
20260503172130 65 132 0.0 2.0 0.00 0.00 0.00 45 1022.2
20260503171626 66 142 2.0 7.0 0.00 0.00 0.00 44 1022.2
20260503171124 65 66 1.0 4.0 0.00 0.00 0.00 45 1022.3
20260503170621 65 359 0.0 3.0 0.00 0.00 0.00 46 1022.3
20260503170117 65 290 5.0 7.0 0.00 0.00 0.00 47 1022.5
20260503151012 60 268 1.0 4.0 0.00 0.00 0.00 64 1023.3
20260503150508 60 276 4.0 6.0 0.00 0.00 0.00 67 1023.3
20260503131355 53 204 0.0 1.0 0.00 0.00 0.00 97 1022.7
20260503130853 53 89 0.0 0.0 0.00 0.00 0.00 96 1022.7
20260503130350 52 89 0.0 0.0 0.00 0.00 0.00 96 1022.9
20260503110744 37 90 0.0 0.0 0.00 0.00 0.00 96 1022.1
20260503110241 36 90 0.0 0.0 0.00 0.00 0.00 96 1021.9
20260503100207 37 88 0.0 0.0 0.00 0.00 0.00 96 1021.0
20260503090131 38 88 0.0 0.0 0.00 0.00 0.00 96 1020.5
20260503081608 39 88 0.0 0.0 0.00 0.00 0.00 95 1020.2
20260503081105 39 88 0.0 0.0 0.00 0.00 0.00 95 1020.0
20260503080600 40 88 0.0 0.0 0.00 0.00 0.00 95 1020.0
20260503072534 40 88 0.0 0.0 0.00 0.00 0.00 95 1019.9